Location: Dulzura
(32.6442°N, 116.7814°W)
Time: 21:37:41
(UTC+00:00)

Okean 3 Rocket - Visible Passes

Search period start: 03 July 2022 00:00
Search period end: 13 July 2022 00:00
Orbit: 615 x 643 km, 82.5° (Epoch: 02 July)

Date Brightness Start Highest point End Pass type
(mag) Time Alt. Az. Time Alt. Az. Time Alt. Az.
03 Jul 6.0 09:02:56 16° E 09:02:56 16° E 09:05:10 10° NE visible
03 Jul 4.5 10:40:19 33° WNW 10:40:19 33° WNW 10:44:16 10° NNW visible
04 Jul 5.2 09:23:39 31° ENE 09:23:39 31° ENE 09:26:54 10° NNE visible
04 Jul 5.5 11:01:02 16° WNW 11:01:02 16° WNW 11:03:47 10° NW visible
05 Jul 4.3 09:44:21 52° NNE 09:44:21 52° NNE 09:47:52 10° N visible
06 Jul 4.5 10:05:02 39° NW 10:05:02 39° NW 10:08:21 10° N visible
07 Jul 5.9 08:48:20 20° ENE 08:48:20 20° ENE 08:50:22 10° NE visible
07 Jul 5.3 10:25:42 21° WNW 10:25:42 21° WNW 10:28:18 10° NNW visible
08 Jul 5.3 09:08:59 32° NE 09:08:59 32° NE 09:11:37 10° NNE visible
08 Jul 6.0 10:46:22 10° WNW 10:46:22 10° WNW 10:46:37 10° WNW visible
09 Jul 5.0 09:29:37 35° N 09:29:37 35° N 09:32:19 10° N visible
10 Jul 6.4 08:12:52 13° NE 08:12:52 13° NE 08:13:36 10° NE visible
10 Jul 5.4 09:50:15 24° NW 09:50:15 24° NW 09:52:33 10° NNW visible
11 Jul 5.9 08:33:29 21° NE 08:33:29 21° NE 08:35:15 10° NNE visible
11 Jul 6.0 10:10:51 13° NW 10:10:51 13° NW 10:11:59 10° NW visible
12 Jul 5.6 08:54:05 27° NNE 08:54:05 27° NNE 08:56:11 10° N visible
